Location: Bennemühlen
(52.5740°N, 9.7135°E)
Time: 02:32:26
(UTC+00:00)

Vanguard 2 Rocket - Pass Details

Date: 19 February 2026
Orbit: 553 x 3287 km, 32.9° (Epoch: 5 March)

Event Time Altitude Azimuth Distance (km) Brightness Sun altitude
Rises 14:45:13 0° 257° (WSW) 6,912 12.5 14.4°
Reaches altitude 10° 14:51:09 10° 248° (WSW) 5,548 12.7 13.7°
Maximum altitude 15:02:59 27° 199° (SSW) 3,347 10.9 12.3°
Drops below altitude 10° 15:11:02 10° 146° (SE) 3,689 10.1 11.4°
Sets 15:14:04 0° 134° (SE) 4,313 10.3 11.0°
